When you browse on this site, cookies collect data to enhance your experience and personalize the content and advertising you see.
Visit our Privacy Policy to learn more. By continuing to use the site, you agree to this use of cookies and data.
  • In Österreich
  • Länderverzeichnis
  • Für 7 Tage
  • Wassertemperatur
  • Wetterkarte
  • News
  • Widgets
  • user-avatar
    Anmelden

    Stündliche Wetter Bezha

    Heute, 17 Oktober, Donnerstag

    Zeit Temperatur Niederschläge Wind Luftdruck Luftfeuchtigkeit
    00:00 +14°C° 0 mm 1 m/S 743 mmHg 88%
    01:00 +14°C° 0 mm 1 m/S 743 mmHg 88%
    02:00 +14°C° 0 mm 1 m/S 743 mmHg 89%
    03:00 +14°C° 0 mm 1 m/S 743 mmHg 88%
    04:00 +14°C° 0 mm 2 m/S 743 mmHg 88%
    05:00 +14°C° 0 mm 2 m/S 743 mmHg 88%
    06:00 +16°C° 0 mm 2 m/S 743 mmHg 83%
    07:00 +17°C° 0 mm 2 m/S 743 mmHg 79%
    08:00 +18°C° 0 mm 3 m/S 744 mmHg 75%
    09:00 +19°C° 0 mm 3 m/S 744 mmHg 73%
    10:00 +20°C° 0 mm 3 m/S 744 mmHg 70%
    11:00 +21°C° 0 mm 3 m/S 744 mmHg 68%
    12:00 +21°C° 0.1 mm 3 m/S 744 mmHg 69%
    13:00 +21°C° 0.1 mm 3 m/S 743 mmHg 70%
    14:00 +21°C° 0.1 mm 4 m/S 743 mmHg 71%
    15:00 +21°C° 0 mm 3 m/S 743 mmHg 74%
    16:00 +20°C° 0 mm 3 m/S 743 mmHg 77%
    17:00 +20°C° 0 mm 3 m/S 743 mmHg 80%
    18:00 +19°C° 0 mm 3 m/S 743 mmHg 84%
    19:00 +18°C° 0 mm 3 m/S 743 mmHg 89%
    20:00 +18°C° 0 mm 2 m/S 743 mmHg 94%
    21:00 +17°C° 0 mm 2 m/S 743 mmHg 95%
    22:00 +17°C° 0 mm 2 m/S 743 mmHg 96%
    23:00 +17°C° 0 mm 2 m/S 743 mmHg 97%

    Morgen, 18 Oktober, Freitag

    Zeit Temperatur Niederschläge Wind Luftdruck Luftfeuchtigkeit
    00:00 +17°C° 0 mm 2 m/S 743 mmHg 97%
    01:00 +17°C° 0 mm 2 m/S 743 mmHg 97%
    02:00 +17°C° 0 mm 2 m/S 742 mmHg 97%
    03:00 +17°C° 0.1 mm 2 m/S 742 mmHg 97%
    04:00 +17°C° 0.1 mm 2 m/S 743 mmHg 96%
    05:00 +18°C° 0.1 mm 2 m/S 743 mmHg 96%
    06:00 +18°C° 0 mm 2 m/S 743 mmHg 91%
    07:00 +19°C° 0 mm 2 m/S 743 mmHg 86%
    08:00 +19°C° 0 mm 2 m/S 743 mmHg 81%
    09:00 +20°C° 0 mm 2 m/S 743 mmHg 74%
    10:00 +21°C° 0 mm 3 m/S 743 mmHg 66%
    11:00 +22°C° 0 mm 3 m/S 743 mmHg 58%
    12:00 +24°C° 0 mm 3 m/S 742 mmHg 54%
    13:00 +25°C° 0 mm 3 m/S 742 mmHg 51%
    14:00 +25°C° 0 mm 4 m/S 741 mmHg 47%
    15:00 +22°C° 0 mm 4 m/S 741 mmHg 52%
    16:00 +21°C° 0 mm 4 m/S 741 mmHg 57%
    17:00 +19°C° 0 mm 5 m/S 741 mmHg 62%
    18:00 +17°C° 0 mm 4 m/S 741 mmHg 67%
    19:00 +16°C° 0 mm 3 m/S 741 mmHg 72%
    20:00 +15°C° 0 mm 2 m/S 741 mmHg 77%
    21:00 +15°C° 0 mm 2 m/S 741 mmHg 79%
    22:00 +14°C° 0 mm 1 m/S 740 mmHg 81%
    23:00 +14°C° 0 mm 1 m/S 740 mmHg 83%

    übermorgen, 19 Oktober, Samstag

    Zeit Temperatur Niederschläge Wind Luftdruck Luftfeuchtigkeit
    00:00 +14°C° 0 mm 1 m/S 740 mmHg 82%
    01:00 +14°C° 0 mm 0 m/S 740 mmHg 80%
    02:00 +14°C° 0 mm 0 m/S 740 mmHg 79%
    03:00 +14°C° 0 mm 0 m/S 740 mmHg 79%
    04:00 +15°C° 0 mm 1 m/S 739 mmHg 79%
    05:00 +15°C° 0 mm 1 m/S 739 mmHg 80%
    06:00 +15°C° 0 mm 1 m/S 739 mmHg 78%
    07:00 +16°C° 0 mm 2 m/S 739 mmHg 77%
    08:00 +16°C° 0 mm 2 m/S 739 mmHg 75%
    09:00 +17°C° 0 mm 3 m/S 739 mmHg 70%
    10:00 +18°C° 0 mm 3 m/S 739 mmHg 65%
    11:00 +20°C° 0 mm 4 m/S 738 mmHg 60%
    12:00 +20°C° 0 mm 4 m/S 738 mmHg 59%
    13:00 +19°C° 0 mm 5 m/S 737 mmHg 59%
    14:00 +19°C° 0 mm 5 m/S 737 mmHg 58%
    15:00 +19°C° 0.2 mm 5 m/S 736 mmHg 64%
    16:00 +17°C° 0.2 mm 5 m/S 736 mmHg 69%
    17:00 +17°C° 0.2 mm 5 m/S 736 mmHg 74%
    18:00 +16°C° 0.4 mm 5 m/S 736 mmHg 76%
    19:00 +16°C° 0.4 mm 5 m/S 736 mmHg 78%
    20:00 +15°C° 0.4 mm 5 m/S 737 mmHg 81%
    21:00 +14°C° 0.1 mm 5 m/S 737 mmHg 81%
    22:00 +12°C° 0.1 mm 5 m/S 737 mmHg 82%
    23:00 +10°C° 0.1 mm 5 m/S 737 mmHg 83%

    20 Oktober, Sonntag

    Zeit Temperatur Niederschläge Wind Luftdruck Luftfeuchtigkeit
    00:00 +11°C° 0 mm 4 m/S 737 mmHg 86%
    01:00 +10°C° 0 mm 4 m/S 738 mmHg 89%
    02:00 +10°C° 0 mm 3 m/S 738 mmHg 91%
    03:00 +10°C° 0 mm 3 m/S 738 mmHg 92%
    04:00 +9°C° 0 mm 3 m/S 738 mmHg 92%
    05:00 +9°C° 0 mm 2 m/S 738 mmHg 92%
    06:00 +11°C° 0 mm 3 m/S 739 mmHg 85%
    07:00 +12°C° 0 mm 4 m/S 740 mmHg 78%
    08:00 +13°C° 0 mm 4 m/S 740 mmHg 71%
    09:00 +15°C° 0 mm 4 m/S 740 mmHg 62%
    10:00 +16°C° 0 mm 5 m/S 740 mmHg 53%
    11:00 +19°C° 0 mm 5 m/S 740 mmHg 44%
    12:00 +19°C° 0 mm 5 m/S 740 mmHg 42%
    13:00 +19°C° 0 mm 5 m/S 740 mmHg 39%
    14:00 +20°C° 0 mm 5 m/S 740 mmHg 37%
    15:00 +19°C° 0 mm 5 m/S 740 mmHg 42%
    16:00 +17°C° 0 mm 4 m/S 740 mmHg 47%
    17:00 +15°C° 0 mm 4 m/S 740 mmHg 52%
    18:00 +14°C° 0 mm 3 m/S 740 mmHg 57%
    19:00 +13°C° 0 mm 3 m/S 740 mmHg 62%
    20:00 +12°C° 0 mm 3 m/S 741 mmHg 68%
    21:00 +12°C° 0 mm 2 m/S 741 mmHg 72%
    22:00 +10°C° 0 mm 2 m/S 741 mmHg 75%
    23:00 +10°C° 0 mm 2 m/S 741 mmHg 79%

    21 Oktober, Montag

    Zeit Temperatur Niederschläge Wind Luftdruck Luftfeuchtigkeit
    00:00 +9°C° 0 mm 2 m/S 741 mmHg 82%
    01:00 +10°C° 0 mm 1 m/S 740 mmHg 85%
    02:00 +10°C° 0 mm 1 m/S 740 mmHg 88%
    03:00 +9°C° 0 mm 1 m/S 740 mmHg 89%
    04:00 +9°C° 0 mm 1 m/S 740 mmHg 90%
    05:00 +9°C° 0 mm 1 m/S 740 mmHg 91%
    06:00 +10°C° 0 mm 1 m/S 741 mmHg 83%
    07:00 +12°C° 0 mm 1 m/S 741 mmHg 76%
    08:00 +13°C° 0 mm 2 m/S 741 mmHg 69%
    09:00 +15°C° 0 mm 2 m/S 741 mmHg 58%
    10:00 +16°C° 0 mm 2 m/S 741 mmHg 47%
    11:00 +18°C° 0 mm 2 m/S 741 mmHg 35%
    12:00 +19°C° 0 mm 2 m/S 741 mmHg 32%
    13:00 +19°C° 0 mm 2 m/S 740 mmHg 29%
    14:00 +20°C° 0 mm 3 m/S 740 mmHg 26%
    15:00 +19°C° 0 mm 3 m/S 740 mmHg 29%
    16:00 +17°C° 0 mm 3 m/S 740 mmHg 33%
    17:00 +16°C° 0 mm 3 m/S 740 mmHg 36%
    18:00 +14°C° 0 mm 3 m/S 740 mmHg 40%
    19:00 +14°C° 0 mm 3 m/S 740 mmHg 44%
    20:00 +13°C° 0 mm 3 m/S 740 mmHg 47%
    21:00 +12°C° 0 mm 3 m/S 740 mmHg 51%
    22:00 +12°C° 0 mm 3 m/S 740 mmHg 56%
    23:00 +11°C° 0 mm 3 m/S 740 mmHg 60%

    22 Oktober, Dienstag

    Zeit Temperatur Niederschläge Wind Luftdruck Luftfeuchtigkeit
    00:00 +11°C° 0 mm 3 m/S 739 mmHg 62%
    01:00 +10°C° 0 mm 3 m/S 739 mmHg 64%
    02:00 +10°C° 0 mm 3 m/S 738 mmHg 66%
    03:00 +10°C° 0 mm 3 m/S 738 mmHg 67%
    04:00 +9°C° 0 mm 3 m/S 738 mmHg 68%
    05:00 +9°C° 0 mm 3 m/S 738 mmHg 68%
    06:00 +10°C° 0 mm 3 m/S 738 mmHg 62%
    07:00 +12°C° 0 mm 3 m/S 738 mmHg 56%
    08:00 +13°C° 0 mm 3 m/S 738 mmHg 50%
    09:00 +16°C° 0 mm 3 m/S 738 mmHg 43%
    10:00 +18°C° 0 mm 4 m/S 738 mmHg 36%
    11:00 +20°C° 0 mm 4 m/S 738 mmHg 30%
    12:00 +20°C° 0 mm 5 m/S 737 mmHg 29%
    13:00 +21°C° 0 mm 5 m/S 737 mmHg 28%
    14:00 +21°C° 0 mm 5 m/S 736 mmHg 27%
    15:00 +19°C° 0 mm 5 m/S 736 mmHg 33%
    16:00 +18°C° 0 mm 4 m/S 736 mmHg 38%
    17:00 +15°C° 0 mm 4 m/S 736 mmHg 44%
    18:00 +14°C° 0 mm 4 m/S 736 mmHg 52%
    19:00 +13°C° 0 mm 5 m/S 736 mmHg 60%
    20:00 +12°C° 0 mm 5 m/S 736 mmHg 68%
    21:00 +11°C° 0 mm 4 m/S 736 mmHg 71%
    22:00 +11°C° 0 mm 4 m/S 736 mmHg 73%
    23:00 +10°C° 0 mm 4 m/S 736 mmHg 76%
    Mehr zeigen